Location: *
(37.5724°S, 58.0067°E)
Time: 06:40:06
(UTC+00:00)

Envisat - Pass Details

Date: 28 November 2022
Orbit: 763 x 765 km, 98.2° (Epoch: 07 February)

Event Time Altitude Azimuth Distance (km) Brightness Sun altitude
Rises 22:52:24 0° 35° (NE) 3,225 6.1 -17.9°
Reaches altitude 10° 22:54:49 10° 42° (NE) 2,306 5.4 -17.6°
Maximum altitude 22:59:30 38° 109° (ESE) 1,160 4.5 -16.9°
Drops below altitude 10° 23:04:14 10° 176° (S) 2,332 6.2 -16.3°
Sets 23:06:41 0° 183° (S) 3,266 6.9 -15.9°
